Location: Feydey
(46.3431°N, 7.0106°E)
Time: 09:25:20
(UTC+00:00)

SL-16 R/B - Pass Details

Date: 20 June 2021
Orbit: 985 x 1007 km, 99.5° (Epoch: 04 August)

Event Time Altitude Azimuth Distance (km) Brightness Sun altitude
Exits shadow 23:46:02 - 120° (ESE) 3,343 5.0 -20.2°
Reaches altitude 10° 23:47:51 10° 111° (ESE) 2,756 4.7 -20.1°
Maximum altitude 23:52:47 26° 58° (ENE) 1,854 4.3 -20.1°
Drops below altitude 10° 23:57:42 10° 5° (N) 2,758 6.1 -20.0°
Sets 00:00:34 0° 354° (N) 3,709 7.0 -20.0°
